QPF
0.00 0.00 0.00 0.00 0.00 0.00 0.00 0.00 0.00 0.00 0.00 0.00 0.00 0.00 0.01 0.03 0.01 0.00 0.00 0.01 0.01 0.01 0.02 0.01 0.00 0.00 0.00 0.00 0.00 0.00 0.00 0.00 0.01 0.03 0.02 0.03 0.04 0.03 0.01 0.00 0.00 0.00 0.00 0.00
0.00 0.00 0.00 0.00 0.00 0.00 0.00 0.00 0.00 0.00 0.00 0.00 0.00 0.00 0.01 0.01 0.01 0.01 0.01 0.01 0.00 0.00 0.00 0.01 0.00 0.00 0.00 0.00 0.00 0.00 0.00 0.01 0.01 0.01 0.02 0.02 0.00 0.00 0.00 0.00 0.00 0.00 0.00 0.00
0.00 0.00 0.00 0.00 0.00 0.00 0.00 0.00 0.00 0.00 0.00 0.00 0.00 0.00 0.00 0.01 0.02 0.02 0.02 0.01 0.00 0.00 0.00 0.00 0.00 0.00 0.00 0.00 0.00 0.00 0.00 0.00 0.00 0.00 0.00 0.00 0.00 0.00 0.00 0.00 0.00 0.00 0.00 0.00
0.00 0.00 0.00 0.00 0.00 0.00 0.00 0.00 0.00 0.00 0.00 0.00 0.00 0.00 0.00 0.02 0.03 0.03 0.01 0.00 0.00 0.00 0.00 0.00 0.00 0.00 0.00 0.00 0.00 0.00 0.00 0.00 0.00 0.00 0.00 0.00 0.00 0.00 0.00 0.00 0.00 0.00 0.00 0.00
0.00 0.00 0.00 0.00 0.00 0.00 0.00 0.00 0.00 0.00 0.00 0.00 0.00 0.00 0.00 0.05 0.01 0.01 0.01 0.00 0.00 0.00 0.00 0.00 0.00 0.00 0.00 0.00 0.00 0.00 0.00 0.00 0.00 0.00 0.00 0.00 0.00 0.00 0.01 0.01 0.00 0.00 0.00 0.00
0.00 0.00 0.00 0.00 0.00 0.00 0.00 0.00 0.00 0.00 0.00 0.00 0.00 0.00 0.02 0.03 0.02 0.01 0.00 0.00 0.00 0.00 0.00 0.00 0.00 0.00 0.00 0.00 0.00 0.00 0.00 0.00 0.00 0.00 0.00 0.00 0.01 0.01 0.01 0.00 0.00 0.00 0.00 0.00
0.00 0.00 0.00 0.00 0.00 0.00 0.00 0.00 0.00 0.00 0.00 0.00 0.00 0.00 0.01 0.01 0.00 0.00 0.00 0.00 0.00 0.00 0.00 0.00 0.00 0.00 0.00 0.00 0.00 0.00 0.00 0.00 0.00 0.00 0.00 0.00 0.00 0.00 0.00 0.00 0.00 0.00 0.00 0.00
0.00 0.00 0.00 0.00 0.00 0.00 0.00 0.00 0.00 0.00 0.00 0.00 0.00 0.01 0.01 0.00 0.00 0.00 0.00 0.00 0.00 0.00 0.00 0.00 0.00 0.00 0.00 0.00 0.00 0.00 0.00 0.00 0.00 0.00 0.00 0.00 0.00 0.00 0.00 0.00 0.00 0.01 0.01 0.01
0.00 0.00 0.00 0.00 0.00 0.00 0.00 0.00 0.00 0.00 0.00 0.00 0.00 0.00 0.01 0.00 0.00 0.00 0.00 0.00 0.00 0.00 0.00 0.00 0.00 0.00 0.00 0.00 0.00 0.00 0.00 0.00 0.00 0.00 0.00 0.00 0.00 0.00 0.00 0.00 0.00 0.00 0.00 0.01
0.00 0.00 0.00 0.00 0.00 0.00 0.00 0.00 0.00 0.00 0.00 0.00 0.00 0.00 0.01 0.02 0.00 0.00 0.00 0.00 0.00 0.00 0.00 0.00 0.00 0.00 0.00 0.00 0.00 0.00 0.00 0.00 0.00 0.00 0.00 0.00 0.00 0.00 0.00 0.00 0.00 0.00 0.00 0.00
0.00 0.00 0.00 0.00 0.00 0.00 0.00 0.00 0.00 0.00 0.00 0.00 0.00 0.00 0.00 0.00 0.00 0.00 0.00 0.00 0.00 0.00 0.00 0.00 0.00 0.00 0.00 0.00 0.00 0.00 0.00 0.00 0.00 0.00 0.00 0.00 0.00 0.00 0.00 0.00 0.00 0.00 0.00 0.00
0.00 0.00 0.00 0.00 0.00 0.00 0.00 0.00 0.00 0.00 0.00 0.00 0.00 0.00 0.00 0.00 0.00 0.00 0.00 0.00 0.00 0.00 0.00 0.00 0.00 0.00 0.00 0.00 0.00 0.00 0.00 0.00 0.00 0.00 0.00 0.00 0.00 0.00 0.00 0.00 0.00 0.00 0.00 0.00
0.00 0.00 0.00 0.00 0.00 0.00 0.00 0.00 0.00 0.00 0.00 0.00 0.00 0.00 0.00 0.00 0.00 0.00 0.00 0.00 0.00 0.00 0.00 0.00 0.00 0.00 0.00 0.00 0.00 0.00 0.00 0.00 0.00 0.00 0.00 0.00 0.00 0.00 0.00 0.00 0.00 0.00 0.00 0.00
0.00 0.00 0.00 0.00 0.00 0.00 0.00 0.00 0.00 0.00 0.00 0.00 0.01 0.01 0.00 0.00 0.00 0.00 0.00 0.00 0.00 0.00 0.00 0.00 0.00 0.00 0.00 0.00 0.00 0.00 0.00 0.00 0.00 0.00 0.00 0.00 0.00 0.00 0.00 0.00 0.00 0.00 0.00 0.00
0.00 0.00 0.00 0.00 0.00 0.00 0.00 0.00 0.00 0.00 0.01 0.03 0.01 0.00 0.00 0.00 0.00 0.00 0.00 0.00 0.00 0.00 0.00 0.00 0.00 0.00 0.00 0.00 0.00 0.00 0.00 0.00 0.00 0.00 0.00 0.00 0.00 0.00 0.00 0.00 0.00 0.00 0.00 0.00
0.00 0.00 0.00 0.00 0.00 0.01 0.00 0.00 0.00 0.01 0.00 0.00 0.00 0.00 0.00 0.00 0.00 0.00 0.00 0.00 0.00 0.00 0.00 0.00 0.00 0.00 0.00 0.00 0.00 0.00 0.00 0.00 0.00 0.00 0.00 0.00 0.00 0.00 0.00 0.00 0.00 0.00 0.00 0.00
0.00 0.00 0.00 0.00 0.00 0.00 0.00 0.00 0.00 0.00 0.00 0.00 0.00 0.00 0.00 0.00 0.00 0.00 0.00 0.00 0.00 0.00 0.00 0.00 0.00 0.00 0.00 0.00 0.00 0.00 0.00 0.00 0.00 0.00 0.00 0.00 0.00 0.00 0.00 0.00 0.00 0.00 0.00 0.00
0.00 0.00 0.00 0.00 0.00 0.00 0.00 0.00 0.00 0.00 0.00 0.00 0.00 0.00 0.00 0.00 0.00 0.00 0.00 0.00 0.00 0.00 0.00 0.00 0.00 0.00 0.00 0.00 0.00 0.00 0.00 0.00 0.00 0.00 0.00 0.00 0.00 0.00 0.00 0.00 0.00 0.00 0.00 0.00
0.00 0.00 0.00 0.00 0.00 0.02 0.03 0.01 0.00 0.00 0.00 0.00 0.00 0.00 0.00 0.00 0.00 0.00 0.00 0.00 0.00 0.00 0.00 0.00 0.00 0.00 0.00 0.00 0.00 0.00 0.00 0.00 0.00 0.00 0.00 0.00 0.00 0.00 0.00 0.00 0.00 0.00 0.00 0.00
0.00 0.00 0.00 0.00 0.00 0.00 0.00 0.00 0.00 0.00 0.00 0.00 0.00 0.00 0.00 0.00 0.00 0.00 0.00 0.00 0.00 0.00 0.00 0.00 0.00 0.00 0.00 0.00 0.00 0.00 0.00 0.00 0.00 0.00 0.00 0.00 0.00 0.00 0.00 0.00 0.00 0.00 0.00 0.00
0.00 0.00 0.00 0.00 0.00 0.00 0.00 0.00 0.00 0.00 0.00 0.00 0.00 0.00 0.00 0.00 0.00 0.00 0.00 0.00 0.00 0.00 0.00 0.00 0.00 0.00 0.00 0.00 0.00 0.00 0.00 0.00 0.00 0.00 0.00 0.00 0.00 0.00 0.00 0.00 0.00 0.00 0.00 0.00
0.00 0.00 0.00 0.00 0.00 0.00 0.00 0.00 0.00 0.00 0.00 0.00 0.00 0.00 0.00 0.00 0.00 0.00 0.00 0.00 0.00 0.00 0.00 0.00 0.00 0.00 0.00 0.00 0.00 0.00 0.00 0.00 0.00 0.00 0.00 0.00 0.00 0.00 0.00 0.00 0.00 0.00 0.00 0.00
0.00 0.00 0.00 0.00 0.00 0.00 0.00 0.00 0.00 0.00 0.00 0.00 0.00 0.00 0.00 0.00 0.00 0.00 0.00 0.00 0.00 0.00 0.00 0.00 0.00 0.00 0.00 0.00 0.00 0.00 0.00 0.00 0.00 0.00 0.00 0.00 0.00 0.00 0.00 0.00 0.00 0.00 0.00 0.00
0.00 0.00 0.00 0.00 0.00 0.00 0.00 0.00 0.00 0.00 0.00 0.00 0.00 0.00 0.00 0.00 0.00 0.00 0.00 0.00 0.00 0.00 0.00 0.00 0.00 0.00 0.00 0.00 0.00 0.00 0.00 0.00 0.00 0.00 0.00 0.00 0.00 0.00 0.00 0.00 0.00 0.00 0.00 0.00
0.00 0.00 0.00 0.00 0.00 0.00 0.00 0.00 0.00 0.00 0.00 0.00 0.00 0.00 0.00 0.00 0.00 0.00 0.00 0.00 0.00 0.00 0.00 0.00 0.00 0.00 0.00 0.00 0.00 0.00 0.00 0.00 0.00 0.00 0.00 0.00 0.00 0.00 0.00 0.00 0.00 0.00 0.00 0.00
0.00 0.00 0.00 0.00 0.00 0.00 0.00 0.00 0.00 0.00 0.00 0.00 0.00 0.00 0.00 0.00 0.00 0.00 0.00 0.00 0.00 0.00 0.00 0.00 0.00 0.00 0.00 0.00 0.00 0.00 0.00 0.00 0.00 0.00 0.00 0.00 0.00 0.00 0.00 0.00 0.00 0.00 0.00 0.00
MSLP
1008.51 1009.34 1009.61 1009.40 1009.50 1009.89 1009.65 1009.94 1010.09 1010.15 1011.00 1014.09 1016.66 1018.47 1019.52 1020.00 1019.90 1020.03 1020.77 1021.01 1021.49 1021.35 1021.55 1022.31 1022.16 1022.06 1022.12 1022.42 1022.47 1022.05 1021.85 1021.73 1021.36 1021.37 1021.15 1020.57 1020.67 1020.84 1020.63 1020.50 1020.10 1019.76 1019.23 1019.18
1008.97 1008.85 1008.55 1008.69 1008.83 1009.33 1009.57 1009.95 1010.56 1010.68 1011.93 1014.88 1018.08 1019.48 1020.75 1020.97 1021.11 1021.31 1021.55 1022.15 1022.44 1022.45 1022.65 1022.78 1023.08 1022.62 1022.50 1023.04 1023.00 1022.59 1022.38 1022.33 1022.17 1022.00 1021.86 1021.48 1021.37 1020.80 1021.04 1020.87 1020.41 1019.91 1019.22 1019.08
1008.29 1008.12 1008.10 1008.27 1008.95 1009.51 1010.14 1010.64 1010.75 1011.20 1012.16 1015.04 1016.58 1019.85 1021.11 1022.11 1022.47 1022.65 1022.96 1023.06 1023.06 1023.12 1023.09 1023.81 1023.90 1023.56 1023.26 1023.41 1023.42 1022.98 1022.85 1022.80 1022.57 1022.13 1021.62 1021.57 1021.38 1020.94 1020.75 1020.99 1020.65 1019.82 1019.57 1018.99
1008.22 1008.22 1008.29 1008.80 1009.35 1009.65 1010.42 1010.75 1010.77 1011.29 1012.31 1014.14 1014.57 1019.55 1021.37 1022.63 1023.34 1023.80 1024.23 1024.21 1024.12 1024.33 1023.85 1024.38 1024.60 1024.45 1024.38 1024.15 1024.15 1023.88 1023.60 1023.37 1023.24 1022.59 1023.04 1022.69 1022.66 1021.92 1021.82 1021.78 1020.98 1020.49 1019.46 1019.48
1008.71 1008.63 1008.80 1009.39 1009.97 1009.97 1010.91 1010.84 1011.37 1012.04 1013.19 1014.31 1015.62 1018.35 1021.52 1022.10 1023.55 1024.33 1024.93 1024.99 1024.82 1024.64 1024.69 1024.83 1024.83 1024.65 1024.58 1024.53 1024.33 1024.32 1023.97 1023.45 1023.12 1022.99 1022.84 1022.46 1022.55 1021.92 1021.62 1021.23 1020.92 1020.54 1019.93 1019.45
1009.21 1008.85 1008.90 1009.32 1009.67 1009.94 1010.56 1011.17 1012.26 1013.36 1014.66 1016.06 1016.99 1018.44 1021.79 1022.47 1023.64 1024.59 1025.18 1025.27 1025.35 1025.45 1025.51 1025.30 1025.10 1024.99 1024.79 1024.65 1024.44 1024.44 1024.09 1023.78 1023.46 1023.19 1022.91 1022.75 1022.50 1021.98 1021.76 1021.52 1021.28 1020.63 1020.04 1019.68
1010.07 1009.74 1009.44 1009.40 1009.78 1010.05 1011.07 1013.00 1014.58 1015.89 1016.88 1017.57 1017.72 1019.43 1022.18 1023.16 1023.89 1024.55 1025.08 1025.35 1025.04 1025.17 1024.90 1025.16 1024.90 1024.73 1024.80 1024.52 1024.55 1024.56 1024.40 1023.88 1023.42 1023.14 1022.89 1022.62 1022.24 1021.87 1021.77 1021.50 1021.19 1020.83 1020.44 1020.04
1011.38 1011.28 1010.79 1010.73 1010.81 1011.38 1012.03 1013.48 1015.24 1016.63 1017.92 1018.32 1018.90 1021.26 1022.88 1023.64 1024.08 1024.58 1025.11 1025.34 1025.11 1025.22 1025.02 1025.16 1024.88 1024.78 1024.38 1024.52 1024.65 1024.69 1024.53 1024.14 1023.45 1023.16 1022.96 1022.62 1022.21 1021.91 1021.62 1021.35 1020.98 1020.60 1020.46 1020.05
1012.38 1012.17 1011.68 1011.34 1011.49 1011.95 1012.46 1013.54 1014.62 1016.15 1017.69 1019.03 1020.81 1022.34 1023.31 1023.88 1024.50 1024.82 1025.06 1025.24 1025.24 1025.11 1025.08 1025.16 1024.92 1024.84 1024.89 1024.81 1024.75 1024.65 1024.53 1024.19 1023.69 1023.28 1022.98 1022.69 1022.49 1022.10 1021.76 1021.21 1020.86 1020.45 1020.35 1019.82
1013.03 1013.15 1012.92 1012.22 1012.24 1012.68 1013.29 1014.00 1015.26 1017.02 1018.70 1020.13 1021.90 1022.72 1023.36 1023.78 1024.36 1024.68 1024.90 1024.82 1024.95 1024.95 1025.18 1025.19 1025.15 1025.26 1025.13 1025.08 1024.85 1024.67 1024.47 1024.21 1023.67 1023.24 1023.11 1022.89 1022.59 1022.12 1021.73 1021.41 1020.85 1020.57 1020.34 1019.93
1013.78 1014.34 1014.50 1013.77 1014.39 1014.49 1014.51 1015.26 1016.44 1017.77 1019.38 1021.10 1022.85 1023.08 1023.14 1023.54 1024.13 1024.46 1024.44 1024.71 1025.12 1025.27 1025.33 1025.16 1025.44 1025.51 1025.46 1025.39 1025.14 1025.07 1024.59 1024.19 1023.91 1023.56 1023.23 1022.96 1022.50 1022.15 1021.76 1021.53 1020.93 1020.54 1020.19 1019.90
1015.26 1015.92 1016.41 1016.03 1015.35 1015.15 1015.63 1016.48 1017.36 1018.86 1020.64 1022.13 1023.32 1023.79 1023.79 1023.24 1023.86 1024.40 1024.76 1024.77 1024.99 1025.22 1025.44 1025.59 1025.75 1025.81 1025.65 1025.38 1025.11 1025.05 1024.56 1024.31 1023.92 1023.52 1023.14 1022.87 1022.44 1022.28 1021.83 1021.37 1020.99 1020.68 1020.55 1020.11
1015.89 1017.33 1017.95 1017.37 1016.72 1016.05 1016.85 1017.72 1018.14 1019.24 1020.67 1022.36 1023.36 1023.95 1023.82 1023.70 1023.92 1024.48 1024.86 1024.98 1025.23 1025.61 1025.91 1025.93 1025.88 1025.93 1025.88 1025.60 1025.31 1024.85 1024.43 1024.06 1023.61 1023.29 1023.11 1022.70 1022.83 1022.43 1021.87 1021.49 1021.22 1020.94 1020.65 1020.39
1016.40 1018.17 1019.14 1019.36 1018.67 1018.25 1018.86 1019.07 1019.37 1019.97 1021.26 1022.41 1023.23 1023.46 1023.91 1024.03 1024.44 1024.65 1024.80 1025.44 1025.91 1026.09 1026.15 1026.25 1026.36 1026.23 1026.07 1025.66 1025.26 1024.80 1024.30 1023.83 1023.64 1023.35 1023.14 1023.13 1023.00 1022.57 1022.11 1021.80 1021.46 1021.09 1020.80 1020.63
1017.48 1019.02 1019.42 1019.29 1018.87 1019.28 1019.64 1019.89 1020.19 1020.48 1021.49 1022.45 1023.33 1023.72 1024.01 1024.21 1024.41 1024.62 1025.28 1026.00 1026.20 1026.41 1026.65 1026.67 1026.66 1026.46 1026.20 1025.78 1025.33 1024.92 1024.54 1024.05 1023.78 1023.52 1023.48 1023.36 1023.09 1022.69 1022.29 1022.07 1021.87 1021.55 1021.31 1021.18
1018.49 1019.46 1020.03 1020.00 1019.98 1020.07 1020.45 1020.72 1020.84 1021.54 1022.47 1023.03 1023.59 1023.86 1024.06 1024.67 1024.95 1025.55 1026.22 1026.54 1026.82 1026.97 1026.97 1026.98 1026.75 1026.47 1026.19 1025.96 1025.54 1025.09 1024.79 1024.45 1024.04 1023.96 1023.84 1023.61 1023.37 1023.02 1022.78 1022.54 1022.29 1022.00 1021.80 1021.62
1019.18 1020.06 1020.83 1021.01 1020.61 1020.49 1021.09 1021.59 1021.88 1022.26 1022.81 1023.40 1024.01 1024.24 1024.65 1025.70 1026.15 1026.66 1027.02 1027.14 1027.22 1027.30 1027.27 1027.11 1026.81 1026.48 1026.21 1026.00 1025.75 1025.53 1025.16 1024.63 1024.37 1024.26 1024.10 1023.79 1023.67 1023.53 1023.23 1022.98 1022.69 1022.30 1022.08 1021.87
1019.10 1020.19 1021.26 1021.94 1021.26 1021.92 1022.68 1022.24 1022.19 1022.61 1023.38 1023.87 1024.30 1024.79 1025.43 1026.25 1026.86 1027.15 1027.30 1027.52 1027.61 1027.62 1027.53 1027.27 1026.96 1026.74 1026.51 1026.25 1026.01 1025.76 1025.34 1025.03 1024.65 1024.65 1024.51 1024.34 1024.12 1023.87 1023.60 1023.34 1022.99 1022.62 1022.26 1022.04
1018.66 1020.40 1022.00 1022.65 1022.90 1022.91 1022.47 1022.51 1022.33 1022.48 1023.87 1024.16 1024.77 1025.51 1026.17 1026.85 1027.41 1028.03 1027.96 1027.72 1027.80 1027.81 1027.77 1027.64 1027.34 1027.16 1026.88 1026.60 1026.38 1026.08 1025.79 1025.50 1025.27 1025.12 1024.97 1024.76 1024.52 1024.25 1023.96 1023.57 1023.14 1022.75 1022.46 1022.20
1019.63 1020.51 1021.87 1022.98 1023.19 1023.08 1022.42 1021.85 1021.57 1022.25 1024.22 1024.60 1024.89 1025.67 1026.46 1027.01 1028.01 1028.48 1028.15 1027.92 1028.11 1028.12 1028.06 1028.02 1027.83 1027.61 1027.28 1027.12 1026.85 1026.47 1026.24 1025.95 1025.71 1025.58 1025.35 1025.12 1024.90 1024.67 1024.45 1023.85 1023.35 1022.91 1022.57 1022.37
1020.57 1021.64 1022.68 1023.21 1023.45 1023.25 1022.57 1022.29 1021.91 1023.37 1025.35 1025.26 1025.58 1026.21 1026.70 1027.39 1027.84 1028.12 1028.16 1028.21 1028.37 1028.30 1028.27 1028.32 1028.16 1027.99 1027.75 1027.42 1027.16 1026.92 1026.71 1026.41 1026.17 1025.81 1025.56 1025.36 1025.03 1024.81 1024.59 1024.18 1023.71 1023.36 1023.04 1022.77
1021.07 1022.06 1023.07 1023.51 1023.94 1023.77 1022.81 1022.69 1023.41 1024.61 1025.20 1025.57 1026.16 1026.75 1027.21 1027.69 1028.03 1028.21 1028.29 1028.41 1028.52 1028.62 1028.58 1028.51 1028.42 1028.17 1027.96 1027.68 1027.47 1027.24 1026.98 1026.71 1026.41 1026.15 1025.87 1025.59 1025.33 1025.01 1024.76 1024.54 1024.14 1023.81 1023.58 1023.33
1021.07 1021.58 1022.72 1023.71 1023.94 1023.67 1023.14 1023.29 1024.02 1024.57 1025.21 1025.91 1026.44 1027.07 1027.21 1027.73 1028.01 1028.25 1028.63 1028.68 1028.85 1028.89 1028.85 1028.65 1028.58 1028.37 1028.18 1027.91 1027.76 1027.54 1027.28 1026.93 1026.66 1026.37 1026.15 1025.96 1025.71 1025.52 1025.31 1025.03 1024.70 1024.42 1024.14 1023.84
1020.90 1021.39 1022.86 1023.64 1024.41 1024.01 1023.96 1024.28 1024.49 1024.85 1025.46 1026.06 1026.63 1027.06 1027.37 1027.81 1028.09 1028.59 1028.71 1028.94 1028.98 1029.06 1028.85 1028.77 1028.66 1028.52 1028.41 1028.19 1028.04 1027.72 1027.38 1027.07 1026.85 1026.69 1026.37 1026.16 1026.13 1025.91 1025.63 1025.39 1025.24 1025.06 1024.86 1024.51
1021.24 1021.60 1023.09 1024.12 1024.36 1024.49 1024.52 1024.41 1024.83 1025.48 1025.90 1026.49 1026.87 1027.14 1027.62 1027.84 1028.24 1028.52 1028.96 1029.06 1029.10 1029.04 1028.98 1028.90 1028.79 1028.66 1028.59 1028.33 1028.10 1027.86 1027.48 1027.25 1027.10 1026.91 1026.62 1026.31 1026.11 1026.07 1025.94 1025.80 1025.70 1025.47 1025.34 1025.17
1021.41 1022.02 1022.67 1023.16 1023.29 1023.90 1024.42 1024.75 1025.03 1025.71 1026.36 1026.71 1027.05 1027.53 1027.70 1027.89 1028.32 1028.74 1029.04 1029.19 1029.20 1029.20 1029.15 1029.06 1028.92 1028.77 1028.68 1028.49 1028.22 1027.98 1027.63 1027.54 1027.44 1027.27 1026.95 1026.68 1026.52 1026.46 1026.23 1026.19 1025.92 1025.67 1025.40 1025.14
Thickness
5786 5762 5752 5767 5770 5772 5768 5759 5755 5769 5773 5721 5713 5702 5697 5697 5693 5689 5683 5684 5678 5676 5673 5663 5662 5659 5654 5648 5641 5642 5638 5632 5632 5630 5627 5627 5622 5616 5615 5611 5611 5609 5608 5605
5765 5750 5777 5785 5786 5772 5766 5757 5751 5767 5768 5719 5695 5685 5681 5682 5678 5677 5672 5666 5663 5662 5656 5653 5647 5649 5646 5635 5631 5630 5624 5620 5617 5615 5611 5609 5605 5604 5599 5595 5595 5593 5594 5592
5758 5779 5792 5783 5771 5761 5753 5746 5747 5753 5761 5726 5709 5674 5670 5666 5663 5661 5655 5655 5653 5649 5643 5632 5630 5631 5629 5620 5614 5614 5612 5610 5604 5606 5603 5595 5588 5593 5590 5583 5580 5583 5580 5581
5775 5785 5777 5765 5760 5760 5734 5757 5757 5754 5737 5713 5738 5647 5662 5654 5646 5645 5640 5638 5638 5633 5631 5623 5616 5613 5608 5605 5602 5599 5595 5590 5585 5585 5577 5581 5574 5570 5565 5562 5563 5560 5565 5562
5763 5765 5760 5749 5752 5761 5743 5760 5749 5747 5730 5720 5712 5671 5657 5659 5638 5635 5630 5628 5627 5623 5620 5613 5606 5602 5599 5596 5594 5586 5582 5581 5578 5573 5569 5566 5560 5557 5555 5555 5553 5551 5548 5546
5766 5784 5774 5764 5766 5763 5761 5744 5732 5721 5703 5683 5694 5675 5649 5650 5640 5630 5623 5621 5616 5612 5607 5603 5599 5596 5593 5587 5584 5578 5575 5572 5568 5563 5558 5552 5548 5546 5542 5537 5531 5529 5527 5524
5751 5753 5772 5773 5751 5757 5739 5702 5666 5670 5660 5665 5689 5664 5641 5640 5634 5628 5619 5615 5614 5609 5605 5596 5595 5592 5584 5581 5574 5568 5564 5562 5559 5554 5548 5542 5539 5534 5527 5521 5517 5512 5507 5502
5715 5705 5744 5755 5744 5728 5725 5702 5660 5655 5646 5661 5669 5639 5633 5629 5630 5623 5614 5608 5607 5603 5597 5590 5589 5583 5583 5575 5569 5561 5556 5552 5550 5544 5537 5532 5528 5521 5517 5511 5506 5501 5493 5487
5710 5715 5746 5748 5744 5733 5718 5692 5705 5673 5669 5649 5636 5630 5625 5626 5619 5613 5607 5603 5597 5593 5589 5586 5583 5578 5570 5565 5559 5552 5545 5540 5535 5531 5526 5520 5513 5508 5505 5501 5496 5490 5481 5479
5728 5705 5730 5740 5737 5729 5716 5711 5671 5655 5644 5640 5615 5614 5616 5616 5611 5608 5605 5599 5591 5587 5582 5579 5574 5566 5560 5553 5548 5542 5535 5530 5526 5520 5513 5507 5502 5498 5494 5490 5487 5480 5474 5472
5724 5705 5702 5719 5696 5687 5684 5677 5674 5660 5643 5624 5604 5608 5624 5618 5611 5603 5599 5595 5586 5580 5576 5574 5563 5556 5548 5541 5534 5524 5521 5518 5512 5507 5502 5498 5493 5490 5485 5480 5477 5472 5468 5467
5708 5684 5670 5685 5698 5701 5689 5671 5663 5630 5631 5614 5597 5599 5606 5612 5607 5597 5590 5588 5582 5575 5568 5559 5553 5546 5539 5534 5527 5519 5517 5510 5504 5498 5495 5491 5488 5481 5476 5472 5469 5466 5462 5460
5703 5664 5642 5653 5668 5682 5665 5656 5656 5638 5621 5609 5594 5595 5605 5605 5600 5592 5583 5583 5573 5563 5556 5549 5543 5536 5529 5525 5519 5515 5511 5505 5499 5494 5490 5487 5477 5471 5467 5464 5461 5457 5455 5453
5694 5659 5644 5627 5640 5645 5634 5640 5641 5630 5607 5608 5604 5599 5596 5595 5587 5582 5581 5570 5558 5553 5549 5543 5532 5524 5521 5518 5512 5509 5505 5498 5492 5488 5482 5476 5468 5464 5460 5456 5452 5450 5448 5447
5676 5651 5652 5652 5655 5642 5635 5632 5631 5626 5620 5605 5600 5596 5590 5586 5583 5582 5572 5558 5552 5546 5538 5529 5522 5516 5512 5509 5504 5501 5494 5488 5485 5481 5475 5468 5463 5458 5452 5447 5443 5441 5440 5438
5659 5641 5643 5639 5644 5637 5625 5628 5627 5619 5608 5599 5594 5591 5591 5585 5577 5566 5555 5549 5541 5532 5527 5521 5517 5513 5507 5503 5498 5492 5485 5482 5479 5475 5470 5464 5458 5452 5444 5438 5434 5433 5431 5431
5650 5636 5626 5621 5633 5631 5609 5615 5611 5607 5604 5597 5582 5588 5579 5562 5558 5549 5539 5535 5530 5525 5521 5515 5510 5505 5504 5497 5492 5484 5480 5480 5477 5472 5467 5462 5455 5445 5437 5432 5428 5428 5426 5426
5645 5636 5622 5614 5619 5592 5607 5614 5612 5602 5595 5591 5584 5577 5568 5556 5547 5540 5532 5525 5521 5517 5512 5507 5502 5502 5496 5490 5485 5480 5480 5478 5476 5470 5465 5459 5452 5444 5438 5431 5427 5426 5426 5427
5656 5631 5614 5599 5591 5606 5610 5606 5605 5597 5584 5589 5576 5569 5560 5548 5537 5526 5524 5521 5518 5512 5505 5499 5498 5494 5489 5485 5481 5479 5477 5476 5473 5469 5465 5459 5454 5448 5443 5438 5434 5432 5431 5431
5647 5636 5617 5608 5601 5592 5609 5615 5618 5605 5566 5581 5576 5566 5553 5544 5518 5512 5517 5518 5509 5501 5497 5493 5489 5486 5485 5480 5477 5477 5476 5474 5474 5470 5467 5463 5457 5453 5448 5448 5447 5446 5445 5444
5623 5620 5612 5602 5593 5601 5613 5611 5616 5578 5562 5574 5567 5557 5549 5534 5521 5518 5517 5510 5501 5496 5494 5488 5483 5481 5479 5477 5476 5476 5475 5474 5474 5474 5471 5466 5464 5461 5458 5457 5457 5456 5456 5455
5621 5610 5604 5600 5593 5593 5612 5608 5589 5578 5575 5568 5558 5545 5535 5527 5521 5518 5511 5502 5497 5493 5488 5485 5480 5480 5477 5476 5476 5476 5476 5476 5477 5475 5474 5471 5470 5470 5468 5465 5465 5465 5464 5463
5620 5622 5606 5604 5593 5602 5605 5598 5589 5580 5571 5562 5550 5540 5534 5525 5520 5515 5501 5495 5492 5487 5483 5483 5478 5478 5476 5476 5476 5476 5477 5478 5480 5479 5477 5476 5476 5475 5474 5473 5473 5472 5472 5472
5638 5633 5610 5605 5602 5599 5597 5590 5584 5577 5566 5557 5547 5538 5531 5523 5519 5505 5500 5491 5489 5483 5483 5480 5478 5476 5475 5475 5475 5477 5479 5481 5483 5481 5482 5480 5479 5479 5479 5479 5478 5477 5476 5477
5627 5628 5607 5596 5598 5595 5592 5587 5578 5569 5562 5552 5543 5537 5527 5521 5511 5504 5493 5490 5485 5482 5480 5477 5477 5475 5474 5475 5477 5478 5481 5483 5484 5484 5484 5485 5486 5485 5484 5484 5483 5483 5482 5481
5626 5618 5604 5595 5603 5593 5588 5581 5576 5566 5556 5548 5540 5532 5525 5516 5507 5498 5491 5487 5483 5479 5477 5476 5475 5475 5475 5476 5478 5480 5483 5485 5486 5486 5487 5488 5489 5488 5488 5488 5490 5490 5490 5491